Weather History for KROC - July, 2012

Change the Weather History Date:

Thursday, July 5, 2012

  Actual Average Record
Temperature  
Mean Temperature 75 °F 70 °F  
Max Temperature 84 °F 81 °F 101 °F (1911)
Min Temperature 66 °F 60 °F 47 °F (1997)
Degree Days  
Heating Degree Days 0 1  
Month to date heating degree days 0 5  
Since 1 June heating degree days 46 73  
Since 1 July heating degree days 0 5  
Cooling Degree Days 10 6  
Month to date cooling degree days 51 30  
Year to date cooling degree days 294 166  
Since 1 June cooling degree days 206 136  
Growing Degree Days 26 (Base 50)    
Moisture  
Dew Point 60 °F    
Average Humidity 60    
Maximum Humidity 79    
Minimum Humidity 40    
Precipitation  
Precipitation 0.00 in 0.10 in 1.94 in (1871)
Month to date precipitation T 0.52  
Year to date precipitation 15.14 16.32  
Snow  
Snow 0.00 in 0.00 in 0.00 in ()
Month to date snowfall 0.0 0.0  
Since 1 June snowfall 0.0 0.0  
Since 1 July snowfall 0.0 0.0  
Snow Depth 0.00 in    
Sea Level Pressure  
Sea Level Pressure 29.89 in    
Wind  
Wind Speed 6 mph (North)    
Max Wind Speed 10 mph    
Max Gust Speed -    
Visibility 10 miles    
Events      
T = Trace of Precipitation, MM = Missing Value Source: NWS Daily Summary

Daily Weather History Graph

Daily Weather History Graph

Search for Another Location

Airport or City:

Trip Planner

Search our weather history database for the weather conditions in past years. The results will help you decide how hot, cold, wet, or windy it might be!

Date:

Astronomy

Jul. 05, 2012 Rise Set
Actual Time 5:37 AM EDT 8:52 PM EDT
Civil Twilight 5:02 AM EDT 9:27 PM EDT
Nautical Twilight 4:17 AM EDT 10:13 PM EDT
Astronomical Twilight 3:21 AM EDT 11:08 PM EDT
Moon 10:02 PM EDT (7/5) 7:51 AM EDT (7/5)
Length of Visible Light 16h 25m
Length of Day
15h 15m
Waning Gibbous, 95% of the Moon is Illuminated
Jul 5
Waning Gibbous
Jul 10
Last Quarter
Jul 19
New
Jul 26
First Quarter
Aug 1
Full

Hourly Weather History & Observations

Time (EDT) Temp. Heat Index Dew Point Humidity Pressure Visibility Wind Dir Wind Speed Gust Speed Precip Events Conditions
12:54 AM 75.9 °F - 63.0 °F 64% 29.81 in 10.0 mi WNW 3.5 mph - N/A   Partly Cloudy
1:54 AM 73.9 °F - 64.0 °F 71% 29.83 in 10.0 mi NW 5.8 mph - N/A   Partly Cloudy
2:54 AM 72.0 °F - 64.0 °F 76% 29.84 in 10.0 mi NNW 5.8 mph - N/A   Scattered Clouds
3:54 AM 72.0 °F - 64.0 °F 76% 29.84 in 10.0 mi NNE 6.9 mph - N/A   Partly Cloudy
4:54 AM 71.1 °F - 61.0 °F 70% 29.86 in 10.0 mi NE 6.9 mph - N/A   Mostly Cloudy
5:54 AM 70.0 °F - 61.0 °F 73% 29.87 in 10.0 mi NE 8.1 mph - N/A   Mostly Cloudy
6:54 AM 71.1 °F - 61.0 °F 70% 29.89 in 10.0 mi NNE 10.4 mph - N/A   Overcast
7:54 AM 72.0 °F - 61.0 °F 68% 29.89 in 10.0 mi NE 6.9 mph - N/A   Overcast
8:54 AM 73.0 °F - 62.1 °F 68% 29.90 in 10.0 mi NE 6.9 mph - N/A   Mostly Cloudy
9:54 AM 73.9 °F - 61.0 °F 64% 29.91 in 10.0 mi NNE 6.9 mph - N/A   Mostly Cloudy
10:54 AM 75.9 °F - 61.0 °F 60% 29.91 in 10.0 mi NNE 5.8 mph - N/A   Overcast
11:54 AM 77.0 °F - 61.0 °F 58% 29.92 in 10.0 mi North 6.9 mph - N/A   Mostly Cloudy
12:54 PM 78.1 °F - 60.1 °F 54% 29.92 in 10.0 mi North 3.5 mph - N/A   Overcast
1:54 PM 81.0 °F 81.7 °F 61.0 °F 50% 29.92 in 10.0 mi NNW 9.2 mph - N/A   Mostly Cloudy
2:54 PM 84.0 °F 84.4 °F 61.0 °F 46% 29.91 in 10.0 mi NW 9.2 mph - N/A   Mostly Cloudy
3:54 PM 82.9 °F 83.2 °F 60.1 °F 46% 29.90 in 10.0 mi NW 6.9 mph - N/A   Mostly Cloudy
4:54 PM 84.2 °F 83.5 °F 57.2 °F 40% 29.90 in 10.0 mi NNW 6.9 mph - N/A   Mostly Cloudy
5:54 PM 82.9 °F 82.6 °F 57.9 °F 42% 29.88 in 10.0 mi NNE 8.1 mph - N/A   Scattered Clouds
6:54 PM 80.1 °F 80.6 °F 57.9 °F 47% 29.88 in 10.0 mi NNE 6.9 mph - N/A   Mostly Cloudy
7:54 PM 79.0 °F - 54.0 °F 42% 29.88 in 10.0 mi North 5.8 mph - N/A   Mostly Cloudy
8:54 PM 77.0 °F - 53.1 °F 43% 29.89 in 10.0 mi ENE 3.5 mph - N/A   Scattered Clouds
9:54 PM 72.0 °F - 57.0 °F 59% 29.91 in 10.0 mi Calm Calm - N/A   Partly Cloudy
10:54 PM 70.0 °F - 57.9 °F 65% 29.92 in 10.0 mi Calm Calm - N/A   Clear
11:54 PM 68.0 °F - 59.0 °F 73% 29.92 in 10.0 mi Calm Calm - N/A   Clear